Nellis AFB, NV

6:21 PM PST on December 15, 2019 (GMT -0800)
Nellis Air Force Base

Weather History for KLSV - October, 2019

Change the Weather History Date:

Friday, October 4, 2019

  Actual Average Record
Temperature  
Mean Temperature 76 °F -  
Max Temperature 85 °F 87 °F 95 °F (1999)
Min Temperature 66 °F 60 °F 48 °F (2016)
Cooling Degree Days 10    
Growing Degree Days 26 (Base 50)    
Moisture  
Dew Point 18 °F    
Average Humidity 12    
Maximum Humidity 18    
Minimum Humidity 7    
Precipitation  
Precipitation 0.00 in - - ()
Sea Level Pressure  
Sea Level Pressure 29.87 in    
Wind  
Wind Speed 8 mph (SW)    
Max Wind Speed 17 mph    
Max Gust Speed -    
Visibility 10 miles    
Events      
Averages and records for this station are not official NWS values.
T = Trace of Precipitation, MM = Missing Value Source: NWS Daily Summary

Daily Weather History Graph

Daily Weather History Graph

Search for Another Location

Airport or City:

Astronomy

Oct. 04, 2019 Rise Set
Actual Time 6:37 AM PDT 6:19 PM PDT
Civil Twilight 6:11 AM PDT 6:45 PM PDT
Nautical Twilight 5:42 AM PDT 7:14 PM PDT
Astronomical Twilight 5:12 AM PDT 7:44 PM PDT
Moon 1:03 PM PDT (10/4) 11:01 PM PDT (10/4)
Length of Visible Light 12h 33m
Length of Day
11h 41m
Waxing Crescent, 41% of the Moon is Illuminated
Oct 4
Waxing Crescent
Oct 5
First Quarter
Oct 13
Full
Oct 21
Last Quarter
Oct 27
New

Hourly Weather History & Observations

Time (PDT) Temp. Dew Point Humidity Pressure Visibility Wind Dir Wind Speed Gust Speed Precip Events Conditions
1:55 AM 69.3 °F 18.7 °F 15% 29.76 in 10.0 mi SSW 11.5 mph - N/A   Clear
2:55 AM 70.5 °F 19.9 °F 15% 29.74 in 10.0 mi South 13.8 mph - N/A   Clear
3:55 AM 70.2 °F 20.5 °F 15% 29.75 in 10.0 mi SSW 8.1 mph - N/A   Clear
4:55 AM 68.2 °F 21.0 °F 17% 29.77 in 10.0 mi SSW 8.1 mph - N/A   Clear
5:55 AM 69.1 °F 19.4 °F 15% 29.78 in 10.0 mi SSW 17.3 mph - N/A   Clear
6:58 AM 68.7 °F 23.5 °F 18% 29.84 in 10.0 mi West 6.9 mph - N/A   Partly Cloudy
7:58 AM 68.7 °F 23.5 °F 18% 29.87 in 10.0 mi NNW 6.9 mph - N/A   Clear
8:58 AM 72.7 °F 23.9 °F 16% 29.89 in 10.0 mi SE 3.5 mph - N/A   Clear
9:58 AM 75.2 °F 24.4 °F 15% 29.91 in 10.0 mi SSE 9.2 mph - N/A   Clear
10:58 AM 77.2 °F 22.5 °F 13% 29.96 in 10.0 mi ESE 3.5 mph - N/A   Clear
11:02 AM 77.2 °F 22.5 °F 13% 29.88 in 10.0 mi Variable 6.9 mph - N/A   Clear
11:18 AM 78.8 °F 21.2 °F 12% 29.91 in 10.0 mi Variable 5.8 mph - N/A   Clear
11:58 AM 80.8 °F 21.4 °F 11% 29.88 in 10.0 mi WSW 6.9 mph - N/A   Clear
12:58 PM 81.9 °F 22.1 °F 11% 29.95 in 10.0 mi Calm Calm - N/A   Clear
1:58 PM 83.5 °F 16.0 °F 8% 29.88 in 10.0 mi SSW 6.9 mph - N/A   Clear
2:58 PM 85.5 °F 14.4 °F 7% 29.92 in 10.0 mi SW 6.9 mph - N/A   Clear
3:55 PM 85.3 °F 14.2 °F 7% 29.86 in 10.0 mi Variable 4.6 mph - N/A   Clear
4:55 PM 85.1 °F 14.0 °F 7% 29.86 in 10.0 mi Calm Calm - N/A   Clear
5:57 PM 83.5 °F 16.0 °F 8% 29.86 in 10.0 mi SSW 4.6 mph - N/A   Clear
5:58 PM 83.5 °F 16.0 °F 8% 29.86 in 10.0 mi SSW 4.6 mph - N/A   Clear
6:56 PM 81.3 °F 17.1 °F 9% 29.87 in 10.0 mi SW 2.3 mph - N/A   Clear
7:56 PM 73.0 °F 12.4 °F 10% 29.88 in 10.0 mi NNE 5.8 mph - N/A   Clear
8:58 PM 73.2 °F 15.4 °F 11% 29.92 in 10.0 mi WNW 2.3 mph - N/A   Clear
9:58 PM 66.6 °F 10.6 °F 11% 29.94 in 10.0 mi SW 1.2 mph - N/A   Clear
10:58 PM 69.6 °F 12.0 °F 11% 29.93 in 10.0 mi SSW 3.5 mph - N/A   Clear
11:58 PM 67.3 °F 11.8 °F 12% 29.95 in 10.0 mi West 2.3 mph - N/A   Clear